This demonstration page uses our WeatherBlox Daily Observations layout. Learn more.

Left ArrowRight Arrow

Hourly Observations for July 5, 2017

Temp ( °F °C ) Dew Point ( °F °C ) Humidity (%) Winds ( mph kmh ) Pressure ( in mb ) Visibility ( mi km ) Precip ( " mm )
12:53 am 00:53 Clear 71 21.7 66 18.9 84 84 SSE 12 19 30.04 1017 10 16 0.00 0.00
1:53 am 01:53 Clear 68 20 65 18.3 90 90 S 6 9 30.04 1017 10 16 0.00 0.00
2:53 am 02:53 Clear 68 20 65 18.3 90 90 S 7 11 30.04 1017 10 16 0.00 0.00
3:53 am 03:53 Clear 67 19.4 64 17.8 91 91 S 5 7 30.04 1017 10 16 0.00 0.00
4:53 am 04:53 Clear 66 18.9 63 17.2 90 90 SSW 6 9 30.04 1017 10 16 0.00 0.00
5:53 am 05:53 Clear 66 18.9 63 17.2 90 90 S 3 6 30.07 1018 10 16 0.00 0.00
6:53 am 06:53 Sunny 65 18.3 63 17.2 93 93 SSW 5 7 30.08 1019 10 16 0.00 0.00
7:53 am 07:53 Sunny 68 20 64 17.8 87 87 S 7 11 30.08 1019 10 16 0.00 0.00
8:53 am 08:53 Sunny 72 22.2 64 17.8 76 76 SSW 7 11 30.10 1019 10 16 0.00 0.00
9:53 am 09:53 Sunny 76 24.4 64 17.8 67 67 S 7 11 30.10 1019 10 16 0.00 0.00
10:53 am 10:53 Sunny 79 26.1 66 18.9 65 65 S 7 11 30.10 1019 10 16 0.00 0.00
11:53 am 11:53 Sunny 80 26.7 66 18.9 62 62 VRB 6 9 30.11 1020 10 16 0.00 0.00
12:53 pm 12:53 Sunny 83 28.3 65 18.3 55 55 S 7 11 30.09 1019 10 16 0.00 0.00
1:53 pm 13:53 Sunny 85 29.4 64 17.8 50 50 SSE 8 13 30.09 1019 10 16 0.00 0.00
2:53 pm 14:53 Sunny 86 30 61 16.1 43 43 S 7 11 30.07 1018 10 16 0.00 0.00
3:53 pm 15:53 Sunny 87 30.6 57 13.9 36 36 VRB 7 11 30.06 1018 10 16 0.00 0.00
4:53 pm 16:53 Sunny 87 30.6 56 13.3 35 35 VRB 7 11 30.05 1018 10 16 0.00 0.00
5:53 pm 17:53 Sunny 88 31.1 56 13.3 34 34 SSW 6 9 30.04 1017 10 16 0.00 0.00
6:53 pm 18:53 Sunny 87 30.6 56 13.3 35 35 S 6 9 30.04 1017 10 16 0.00 0.00
7:53 pm 19:53 Sunny 86 30 57 13.9 37 37 S 6 9 30.03 1017 10 16 0.00 0.00
8:53 pm 20:53 Sunny 81 27.2 61 16.1 51 51 S 6 9 30.03 1017 10 16 0.00 0.00
9:53 pm 21:53 Clear 78 25.6 60 15.6 54 54 S 7 11 30.04 1017 10 16 0.00 0.00
10:53 pm 22:53 Clear 75 23.9 60 15.6 60 60 S 8 13 30.05 1018 10 16 0.00 0.00
11:53 pm 23:53 Clear 73 22.8 60 15.6 64 64 S 9 15 30.05 1018 10 16 0.00 0.00

Powered by AerisWeather